This demonstration page uses our WeatherBlox Daily Observations layout. Learn more.

Left ArrowRight Arrow

44.89941, -97.11507

Hourly Observations for April 15, 2018

Temp ( °F °C ) Dew Point ( °F °C ) Humidity (%) Winds ( mph kmh ) Pressure ( in mb ) Visibility ( mi km ) Precip ( " mm )
12:08 am 00:08 Cloudy with Mist and Fog 21 -6.1 19 -7.2 92 92 NE 18 30 30.30 1026 3 5 0.00 0.00
12:53 am 00:53 Cloudy with Mist and Fog 21 -6.1 19 -7.2 92 92 NE 18 30 30.24 1024 4 6 0.00 0.00
1:31 am 01:31 Cloudy with Mist and Fog 21 -6.1 19 -7.2 92 92 NNE 20 31 30.27 1025 4 6 0.00 0.00
1:40 am 01:40 Cloudy with Mist and Fog 21 -6.1 18 -7.8 88 88 NE 22 35 30.27 1025 4 6 0.00 0.00
1:53 am 01:53 Cloudy with Mist and Fog 20 -6.7 18 -7.8 92 92 NE 18 30 30.24 1024 3 4 0.00 0.00
2:11 am 02:11 Cloudy with Mist and Fog 20 -6.7 18 -7.8 92 92 NE 16 26 30.27 1025 2 3 0.00 0.00
2:53 am 02:53 Cloudy with Mist and Fog 20 -6.7 18 -7.8 92 92 NNE 16 26 30.23 1024 2 3 0.00 0.00
3:18 am 03:18 Cloudy with Mist and Fog 20 -6.7 18 -7.8 92 92 NNE 15 24 30.27 1025 3 4 0.00 0.00
3:29 am 03:29 Cloudy with Mist and Fog 20 -6.7 18 -7.8 92 92 NNE 16 26 30.24 1024 4 6 0.00 0.00
3:38 am 03:38 Cloudy with Mist and Fog 20 -6.7 18 -7.8 92 92 NNE 17 28 30.24 1024 5 8 0.00 0.00
3:53 am 03:53 Cloudy with Mist and Fog 20 -6.7 18 -7.8 92 92 NNE 20 31 30.21 1023 6 10 0.00 0.00
4:31 am 04:31 Cloudy with Mist and Fog 20 -6.7 18 -7.8 92 92 NNE 17 28 30.24 1024 4 6 0.00 0.00
4:43 am 04:43 Cloudy with Mist and Fog 20 -6.7 18 -7.8 92 92 NNE 15 24 30.24 1024 3 5 0.00 0.00
4:53 am 04:53 Cloudy with Mist and Fog 20 -6.7 18 -7.8 92 92 NNE 15 24 30.21 1023 6 10 0.00 0.00
5:28 am 05:28 Cloudy 20 -6.7 18 -7.8 92 92 NNE 15 24 30.27 1025 9 14 0.00 0.00
5:36 am 05:36 Cloudy 20 -6.7 18 -7.8 92 92 NNE 14 22 30.27 1025 10 16 0.00 0.00
5:49 am 05:49 Cloudy 19 -7 18 -8 93 93 NNE 16 26 30.27 1025 10 16 0.00 0.00
5:53 am 05:53 Cloudy 20 -6.7 18 -7.8 92 92 NNE 16 26 30.22 1024 10 16 0.00 0.00
6:23 am 06:23 Cloudy 21 -6.1 19 -7.2 92 92 N 17 28 30.27 1025 9 14 0.00 0.00
6:36 am 06:36 Cloudy 21 -6.1 19 -7.2 92 92 N 18 30 30.27 1025 8 13 0.00 0.00
6:53 am 06:53 Cloudy with Mist and Fog 21 -6.1 19 -7.2 92 92 NNE 18 30 30.23 1024 5 8 0.00 0.00
7:53 am 07:53 Cloudy with Mist and Fog 21 -6.1 19 -7.2 92 92 N 21 33 30.24 1024 4 6 0.00 0.00
8:50 am 08:50 Cloudy with Mist and Fog 21 -6 19 -7 93 93 NNE 20 31 30.30 1026 2 3 0.00 0.00
8:53 am 08:53 Cloudy with Mist and Fog 22 -5.6 19 -7.2 89 89 NNE 20 31 30.26 1025 2 3 0.00 0.00
9:53 am 09:53 Cloudy with Mist and Fog 22 -5.6 20 -6.7 92 92 NNE 21 33 30.26 1025 2 3 0.00 0.00
10:53 am 10:53 Cloudy with Mist and Fog 23 -5 20 -6.7 88 88 N 21 33 30.26 1025 3 4 0.00 0.00
11:28 am 11:28 Cloudy with Haze 24 -4.4 19 -7.2 81 81 N 23 37 30.30 1026 3 5 0.00 0.00
11:53 am 11:53 Cloudy with Haze 25 -3.9 20 -6.7 81 81 NNE 22 35 30.25 1024 3 5 0.00 0.00
12:53 pm 12:53 Cloudy with Mist and Fog 25 -3.9 21 -6.1 85 85 N 25 41 30.24 1024 3 5 0.00 0.03
1:53 pm 13:53 Mostly Cloudy 26 -3.3 20 -6.7 78 78 NNE 22 35 30.22 1023 9 14 0.00 0.00
2:27 pm 14:27 Mostly Cloudy 26 -3.3 19 -7.2 75 75 NNE 22 35 30.21 1023 10 16 0.00 0.00
2:53 pm 14:53 Cloudy 27 -2.8 21 -6.1 78 78 N 21 33 30.20 1023 10 16 0.00 0.00
3:53 pm 15:53 Cloudy 26 -3.3 22 -5.6 84 84 NNE 17 28 30.22 1023 10 16 0.00 0.00
4:12 pm 16:12 Cloudy 26 -3.3 22 -5.6 84 84 NNE 18 30 30.21 1023 8 13 0.00 0.00
4:25 pm 16:25 Cloudy 26 -3.3 22 -5.6 84 84 NNE 17 28 30.21 1023 10 16 0.00 0.00
4:53 pm 16:53 Cloudy 26 -3.3 22 -5.6 84 84 NNE 17 28 30.21 1023 10 16 0.00 0.00
5:49 pm 17:49 Cloudy 27 -3 21 -6 80 80 NNE 14 22 30.21 1023 10 16 0.00 0.00
5:53 pm 17:53 Cloudy 26 -3.3 22 -5.6 84 84 N 14 22 30.21 1023 10 16 0.00 0.00
6:01 pm 18:01 Cloudy 26 -3.3 22 -5.6 84 84 N 13 20 30.21 1023 10 16 0.00 0.00
6:53 pm 18:53 Cloudy 26 -3.3 21 -6.1 81 81 NNE 15 24 30.21 1023 10 16 0.00 0.00
7:53 pm 19:53 Cloudy 26 -3.3 22 -5.6 84 84 N 12 19 30.21 1023 10 16 0.00 0.00
8:13 pm 20:13 Cloudy 26 -3.3 22 -5.6 84 84 N 12 19 30.24 1024 10 16 0.00 0.00
8:32 pm 20:32 Cloudy 26 -3.3 22 -5.6 84 84 N 12 19 30.21 1023 10 16 0.00 0.00
8:53 pm 20:53 Cloudy 27 -2.8 23 -5 85 85 N 13 20 30.21 1023 10 16 0.00 0.00
9:40 pm 21:40 Cloudy 26 -3.3 24 -4.4 92 92 NE 17 28 30.21 1023 10 16 0.00 0.00
9:48 pm 21:48 Cloudy 27 -3 25 -4 93 93 NE 14 22 30.24 1024 10 16 0.00 0.00
9:53 pm 21:53 Cloudy 26 -3.3 23 -5 88 88 NNE 15 24 30.22 1023 10 16 0.00 0.00
10:00 pm 22:00 Cloudy 25 -3.9 23 -5 92 92 NNE 17 28 30.24 1024 10 16 0.00 0.00
10:53 pm 22:53 Mostly Cloudy 22 -5.6 21 -6.1 96 96 NE 10 17 30.24 1024 9 14 0.00 0.00
11:18 pm 23:18 Cloudy 22 -5.6 20 -6.7 92 92 NE 7 11 30.27 1025 10 16 0.00 0.00
11:46 pm 23:46 Cloudy 22 -5.6 21 -6.1 96 96 N 7 11 30.27 1025 10 16 0.00 0.00
11:53 pm 23:53 Cloudy 22 -5.6 21 -6.1 96 96 NNW 7 11 30.24 1024 10 16 0.00 0.00

Powered by AerisWeather